User: anonymous   Login
Location: Camp Creek
(33.9000°N, 111.8167°W)
Time: 13:33:43
(UTC-07:00)
Language:

Cosmos 2322 Rocket - Orbit

View from above orbital plane
View from above orbital plane
View from above satellite
View from above satellite

Ground track
Ground track

The orbit data is extracted from the following two-line orbital elements,

1 23705U 95058B   17207.25816586 +.00000001 +00000-0 +24969-4 0  9997
2 23705 071.0226 307.0614 0014420 242.6664 117.2991 14.15097742122419
Epoch (UTC): 26 July 2017 06:11:45
Eccentricity: 0.0014420
inclination: 71.0226°
perigee height: 831 km
apogee height: 852 km
right ascension of ascending node: 307.0614°
argument of perigee: 242.6664°
revolutions per day: 14.15097742
mean anomaly at epoch: 117.2991°
orbit number at epoch: 12241

The dashed part of the orbit path shows where the satellite is in the earth's shadow,  

DLR